2023�N�x�@��C������Ԃɂ�鑪�茋��,,,,,,,,,,,,,,,
,,,,,,,,,,,,,,,
�P�@����n�_,,,,,,,,,,,,,,,
���C�s�V��(���C�s�V��1-1),,,,,,,,,,,,,,,
,,,,,,,,,,,,,,,
�Q�@���Ԓl�i�m��l�j��2023�N10��3���`2023�N10��25��,,,,,,,,,,,,,,,
,,,,,,,,,,,,,,,
,�N,��,��,��,SO2,SPM,Ox,CO,NO,NO2,PM2.5,���x,���x,����,����
,,,,,ppm,mg/m3,ppm,ppm,ppm,ppm,��g/m3,��,%,�ő�,m/s
R5,2023,10,3,1,***,0.015,0.029,***,***,***,9,20,55.6,N,1.5
R5,2023,10,3,2,0.001,0.015,0.027,0.2,0.001,0.012,9,19.5,56,N,1.4
R5,2023,10,3,3,0.001,0.008,0.024,0.2,0.001,0.013,7,18.5,58.3,NNE,1.7
R5,2023,10,3,4,0.001,0.007,0.025,0.2,0,0.008,8,17.7,65.7,NNE,1.3
R5,2023,10,3,5,0.001,0.009,0.018,0.2,0.003,0.018,8,18.3,56.9,N,2.5
R5,2023,10,3,6,0.001,0.012,0.015,0.2,0.007,0.022,8,18.2,57.6,N,1.9
R5,2023,10,3,7,0.001,0.012,0.017,0.2,0.007,0.022,7,20.3,45.9,N,3
R5,2023,10,3,8,0.001,0.01,0.027,0.2,0.007,0.015,8,21.6,43.5,N,3.5
R5,2023,10,3,9,0,0.01,0.031,0.2,0.006,0.013,6,22.4,44.6,N,3.7
R5,2023,10,3,10,0.001,0.01,0.035,0.2,0.005,0.011,8,24.5,37.5,NNW,1.5
R5,2023,10,3,11,0.001,0.012,0.038,0.2,0.005,0.011,5,26.4,35.1,NE,0.7
R5,2023,10,3,12,0.001,0.012,0.039,0.2,0.009,0.017,10,26.7,35.1,ESE,1
R5,2023,10,3,13,0.002,0.013,0.038,0.4,0.009,0.024,12,26.9,37.4,SSW,1.7
R5,2023,10,3,14,0.005,0.021,0.032,0.7,0.015,0.035,15,26.7,39.7,W,1.6
R5,2023,10,3,15,0.005,0.023,0.033,0.6,0.014,0.04,16,26.9,43.5,S,2.6
R5,2023,10,3,16,0.005,0.023,0.045,0.5,0.006,0.03,15,26.1,48.2,SE,1.2
R5,2023,10,3,17,0.003,0.023,0.045,0.5,0.003,0.028,18,25.4,53.4,W,0.7
R5,2023,10,3,18,0.004,0.019,0.031,0.5,0.005,0.04,16,24.6,57.5,NNW,0.5
R5,2023,10,3,19,0.003,0.02,0.036,0.5,0.004,0.031,15,24.7,59.3,N,0.7
R5,2023,10,3,20,0.003,0.024,0.036,0.5,0.002,0.028,16,24.9,57.8,NW,0.5
R5,2023,10,3,21,0.003,0.021,0.036,0.4,0.001,0.022,17,24.6,53,N,1.6
R5,2023,10,3,22,0.001,0.024,0.034,0.4,0.001,0.019,16,21.7,78.8,ESE,2.3
R5,2023,10,3,23,0.001,0.023,0.034,0.3,0.001,0.016,15,21.5,83.1,NE,0.7
R5,2023,10,3,24,0,0.026,0.034,0.3,0.001,0.013,17,20.7,94,NNE,1.3
R5,2023,10,4,1,0,0.022,0.034,0.3,0.001,0.012,14,19.7,94.8,W,1.7
R5,2023,10,4,2,0.001,0.026,0.022,0.3,0.001,0.016,17,19.4,99.1,N,3
R5,2023,10,4,3,0,0.017,0.034,0.2,0.003,0.014,10,19.5,99.2,NNE,2.7
R5,2023,10,4,4,0,0.009,0.035,0.2,0.002,0.01,7,19.5,96.7,N,2.6
R5,2023,10,4,5,0,0.008,0.029,0.2,0.004,0.014,6,20,95.7,W,0.9
R5,2023,10,4,6,0,0.012,0.011,0.3,0.009,0.02,11,19.2,97.3,W,0.8
R5,2023,10,4,7,0.001,0.017,0.007,0.3,0.019,0.026,13,19.5,97.3,NNW,0.6
R5,2023,10,4,8,0.001,0.016,0.006,0.4,0.037,0.027,12,19.5,96.7,WNW,0.5
R5,2023,10,4,9,0,0.011,0.026,0.2,0.004,0.018,9,19.4,94.7,NE,1.9
R5,2023,10,4,10,0.001,0.016,0.022,0.3,0.01,0.028,10,19.8,91.2,N,1.4
R5,2023,10,4,11,0.001,0.012,0.025,0.3,0.011,0.029,10,20.7,87.9,WNW,0.8
R5,2023,10,4,12,0.001,0.007,0.031,0.3,0.016,0.025,8,21.8,78.9,NNE,1.5
R5,2023,10,4,13,0.001,0.01,0.035,0.2,0.008,0.019,8,22.5,76.3,N,1.3
R5,2023,10,4,14,0.001,0.009,0.031,0.3,0.017,0.028,5,23.1,72.7,WNW,1.4
R5,2023,10,4,15,0.001,0.01,0.029,0.3,0.007,0.028,9,22.5,80.2,NNW,1
R5,2023,10,4,16,0.001,0.012,0.024,0.3,0.015,0.032,9,21.2,92.6,W,1.1
R5,2023,10,4,17,0.001,0.01,0.028,0.3,0.009,0.028,7,21.3,91.3,W,1.1
R5,2023,10,4,18,0.001,0.012,0.029,0.4,0.01,0.025,7,21.2,89.2,W,1.5
R5,2023,10,4,19,0.001,0.012,0.03,0.3,0.004,0.021,7,21.2,89.7,W,1.1
R5,2023,10,4,20,0.001,0.011,0.033,0.3,0.003,0.016,7,20.6,92.5,NNW,0.8
R5,2023,10,4,21,0.001,0.014,0.031,0.3,0.001,0.016,9,20.9,90.6,NW,0.6
R5,2023,10,4,22,0.001,0.016,0.025,0.4,0.002,0.02,11,20.6,90.6,N,1.1
R5,2023,10,4,23,0.001,0.017,0.025,0.3,0.001,0.018,12,20.4,89,N,1.5
R5,2023,10,4,24,0.001,0.016,0.023,0.3,0.001,0.015,10,20.3,91.4,N,1.1
R5,2023,10,5,1,0,0.013,0.013,0.3,0.004,0.022,12,20.4,93.8,W,0.9
R5,2023,10,5,2,0.001,0.013,0.01,0.3,0.003,0.021,11,20.1,93.2,N,1.4
R5,2023,10,5,3,0.002,0.011,0.008,0.3,0.005,0.018,9,20.1,94.2,W,1.4
R5,2023,10,5,4,0.002,0.017,0.006,0.3,0.005,0.016,12,20,93.6,N,1.2
R5,2023,10,5,5,0.001,0.016,0.003,0.3,0.01,0.02,10,19.8,92,N,1.3
R5,2023,10,5,6,0.002,0.014,0.002,0.3,0.016,0.02,9,20,90.8,N,1
R5,2023,10,5,7,0.002,0.013,0.001,0.3,0.037,0.019,8,20.4,89.6,WSW,0.9
R5,2023,10,5,8,0.002,0.015,0.001,0.3,0.07,0.026,11,20.6,88.2,WSW,1
R5,2023,10,5,9,0.004,0.017,0.001,0.4,0.079,0.03,10,20.9,86.6,W,0.5
R5,2023,10,5,10,0.003,0.02,0.003,0.5,0.085,0.042,12,22.3,72.8,SW,1.6
R5,2023,10,5,11,0.003,0.021,0.012,0.6,0.052,0.04,15,21.5,75.4,W,4.8
R5,2023,10,5,12,0.001,0.011,0.035,0.2,0.012,0.017,12,23,61.6,W,4.6
R5,2023,10,5,13,0.001,0.01,0.037,0.2,0.007,0.008,6,22.5,60.3,WNW,2.4
R5,2023,10,5,14,0.001,0.012,0.035,0.2,0.009,0.012,9,23.1,55.4,W,3.5
R5,2023,10,5,15,0.001,0.011,0.034,0.2,0.01,0.013,6,22.4,52.1,W,4.3
R5,2023,10,5,16,***,***,***,***,***,***,***,***,***,***,***
R5,2023,10,5,17,***,***,***,***,***,***,***,***,***,***,***
R5,2023,10,5,18,***,***,***,***,***,***,***,***,***,***,***
R5,2023,10,5,19,***,***,***,***,***,***,***,***,***,***,***
R5,2023,10,5,20,***,***,***,***,***,***,***,***,***,***,***
R5,2023,10,5,21,***,***,***,***,***,***,***,***,***,***,***
R5,2023,10,5,22,***,***,***,***,***,***,***,***,***,***,***
R5,2023,10,5,23,***,***,***,***,***,***,***,***,***,***,***
R5,2023,10,5,24,***,***,***,***,***,***,***,***,***,***,***
R5,2023,10,6,1,***,***,***,***,***,***,***,***,***,***,***
R5,2023,10,6,2,***,***,***,***,***,***,***,***,***,***,***
R5,2023,10,6,3,***,***,***,***,***,***,***,***,***,***,***
R5,2023,10,6,4,***,***,***,***,***,***,***,***,***,***,***
R5,2023,10,6,5,***,***,***,***,***,***,***,***,***,***,***
R5,2023,10,6,6,***,***,***,***,***,***,***,***,***,***,***
R5,2023,10,6,7,***,***,***,***,***,***,***,***,***,***,***
R5,2023,10,6,8,***,***,***,***,***,***,***,***,***,***,***
R5,2023,10,6,9,***,***,***,***,***,***,***,***,***,***,***
R5,2023,10,6,10,***,***,***,***,***,***,***,***,***,***,***
R5,2023,10,6,11,***,***,***,***,***,***,***,23.3,34.7,WNW,2.8
R5,2023,10,6,12,***,0.018,0.037,***,***,***,15,23.4,32,WNW,3
R5,2023,10,6,13,0.001,0.02,0.039,0.2,0.007,0.008,11,23.6,33.1,WNW,3.9
R5,2023,10,6,14,0,0.014,0.036,0.2,0.01,0.01,9,23.1,37.7,WNW,3.2
R5,2023,10,6,15,0,0.014,0.034,0.2,0.012,0.01,12,23.1,41.3,WNW,3.8
R5,2023,10,6,16,0.001,0.015,0.034,0.2,0.006,0.01,8,22.1,44.8,N,3.8
R5,2023,10,6,17,0.001,0.016,0.032,0.2,0.004,0.01,11,21.4,47.7,N,3.4
R5,2023,10,6,18,0,0.015,0.03,0.2,0.004,0.011,10,20.7,50.1,NW,2.6
R5,2023,10,6,19,0,0.01,0.032,0.2,0.003,0.009,9,19.8,52.6,NW,2
R5,2023,10,6,20,0,0.012,0.035,0.2,0.001,0.007,9,19.4,54.9,WNW,1.4
R5,2023,10,6,21,0,0.013,0.035,0.2,0.001,0.006,7,19.1,56.7,NNW,1.4
R5,2023,10,6,22,0,0.013,0.03,0.2,0.002,0.009,9,18.5,60.6,W,1.8
R5,2023,10,6,23,0.001,0.013,0.029,0.2,0.002,0.009,11,18.2,60.8,NNW,0.9
R5,2023,10,6,24,0.001,0.014,0.027,0.3,0.001,0.012,10,18,59.8,N,2.6
R5,2023,10,7,1,0.001,0.014,0.023,0.3,0.001,0.014,10,17.6,62.4,NNW,1
R5,2023,10,7,2,0.001,0.013,0.026,0.2,0.001,0.01,9,17.3,63.4,N,1.9
R5,2023,10,7,3,0.001,0.015,0.024,0.2,0.001,0.011,9,17.6,62.8,NW,0.7
R5,2023,10,7,4,0.001,0.011,0.023,0.2,0.002,0.012,9,17.7,62.8,N,0.9
R5,2023,10,7,5,0.001,0.015,0.02,0.2,0.003,0.015,6,17.7,61.8,N,1.1
R5,2023,10,7,6,0.001,0.015,0.018,0.3,0.002,0.018,9,17.7,59.8,N,1.3
R5,2023,10,7,7,0.001,0.012,0.017,0.3,0.005,0.02,10,18,59.2,NNW,1.1
R5,2023,10,7,8,0.001,0.012,0.017,0.2,0.009,0.02,10,19,53.3,NNW,1.2
R5,2023,10,7,9,0.001,0.013,0.025,0.2,0.006,0.013,7,19.1,51.7,N,2.9
R5,2023,10,7,10,0.001,0.013,0.031,0.2,0.005,0.012,11,21,42.8,N,2.7
R5,2023,10,7,11,0.001,0.011,0.036,0.2,0.005,0.008,8,22.4,39.7,W,3.1
R5,2023,10,7,12,0,0.012,0.038,0.2,0.005,0.007,8,23.1,35.2,NNW,2.7
R5,2023,10,7,13,0,0.009,0.041,0.2,0.003,0.006,4,23.6,35.3,WNW,2.8
R5,2023,10,7,14,0,0.01,0.04,0.2,0.005,0.004,5,24.3,33.5,WNW,2.4
R5,2023,10,7,15,0,0.008,0.04,0.2,0.004,0.005,6,23.7,36.3,W,3.4
R5,2023,10,7,16,0,0.011,0.038,0.2,0.004,0.005,6,22.7,38.8,W,3.8
R5,2023,10,7,17,0.001,0.011,0.038,0.2,0.002,0.005,6,21.8,41.7,W,3.7
R5,2023,10,7,18,0.001,0.007,0.037,0.2,0.002,0.005,9,20.9,45.1,W,2.7
R5,2023,10,7,19,0.001,0.01,0.036,0.2,0.001,0.004,7,20.1,48.3,W,2.5
R5,2023,10,7,20,0.001,0.01,0.036,0.2,0.001,0.004,7,19.7,48.6,W,2.8
R5,2023,10,7,21,0.001,0.01,0.034,0.2,0.001,0.005,9,19.2,52.5,W,1.5
R5,2023,10,7,22,0.001,0.01,0.032,0.2,0.001,0.006,6,19,53,WNW,1
R5,2023,10,7,23,0,0.01,0.031,0.2,0,0.006,5,18.5,54.9,NW,1
R5,2023,10,7,24,0,0.008,0.03,0.2,0.001,0.006,6,18.3,56.3,NNW,0.9
R5,2023,10,8,1,0.001,0.008,0.027,0.2,0.001,0.008,6,18.6,54.6,N,1.8
R5,2023,10,8,2,0.001,0.008,0.029,0.2,0,0.006,7,18.6,54.9,N,2.3
R5,2023,10,8,3,0.001,0.008,0.026,0.3,0,0.008,9,18.6,56,N,2.3
R5,2023,10,8,4,0.001,0.011,0.023,0.3,0,0.009,8,18.3,56.4,N,2.2
R5,2023,10,8,5,0.001,0.011,0.022,0.2,0.001,0.008,7,18.3,58.1,N,1.2
R5,2023,10,8,6,0.001,0.011,0.019,0.2,0.001,0.01,7,18.2,60.7,CALM,0.2
R5,2023,10,8,7,0.002,0.012,0.018,0.3,0.001,0.011,7,18.5,56.2,N,1.7
R5,2023,10,8,8,0.001,0.01,0.021,0.2,0.002,0.008,8,19.4,51.9,N,1.7
R5,2023,10,8,9,0.001,0.011,0.022,0.3,0.002,0.007,7,20.1,49.1,N,0.4
R5,2023,10,8,10,0.001,0.011,0.025,0.3,0.002,0.008,10,20.9,48.8,NNW,0.7
R5,2023,10,8,11,0.001,0.012,0.023,0.3,0.004,0.011,9,21,50.1,NW,0.6
R5,2023,10,8,12,0.001,0.015,0.031,0.3,0.001,0.007,12,20.9,52.6,SSE,3.3
R5,2023,10,8,13,0.001,0.013,0.036,0.2,0,0.004,11,17.4,80.3,SE,3.3
R5,2023,10,8,14,0,0.013,0.037,0.2,0,0.003,12,16,90,ESE,1.7
R5,2023,10,8,15,0.001,0.011,0.034,0.2,0,0.004,8,15.9,94.8,SE,2.2
R5,2023,10,8,16,0,0.01,0.031,0.2,0.001,0.005,8,15.5,95.3,SE,1.9
R5,2023,10,8,17,0,0.008,0.031,0.2,0,0.005,7,15.3,95.4,SE,2.1
R5,2023,10,8,18,0,0.006,0.028,0.2,0,0.005,6,15.4,95.4,ENE,0.5
R5,2023,10,8,19,0,0.008,0.023,0.3,0,0.007,6,16.1,94.7,W,0.4
R5,2023,10,8,20,0,0.009,0.023,0.3,0.001,0.008,9,16.4,92.5,N,1.2
R5,2023,10,8,21,0.001,0.01,0.022,0.3,0.001,0.009,8,16.3,96,W,0.9
R5,2023,10,8,22,0.001,0.011,0.019,0.4,0.001,0.011,7,16.1,95.8,NW,0.8
R5,2023,10,8,23,0,0.011,0.029,0.3,0.001,0.007,8,16,93.8,W,1.7
R5,2023,10,8,24,0.001,0.009,0.027,0.3,0.002,0.007,7,16.2,92.8,W,1
R5,2023,10,9,1,0.001,0.008,0.027,0.3,0.001,0.007,9,16.1,93.4,NW,1
R5,2023,10,9,2,0.001,0.007,0.024,0.3,0.001,0.007,5,16.2,93.5,W,1
R5,2023,10,9,3,0,0.008,0.021,0.3,0.001,0.008,9,16.4,94.5,NNW,0.8
R5,2023,10,9,4,0,0.009,0.019,0.3,0.003,0.01,6,16.3,94.6,NNW,0.5
R5,2023,10,9,5,0,0.006,0.015,0.3,0.004,0.013,5,16.3,95.4,NW,1.3
R5,2023,10,9,6,0,0.009,0.015,0.3,0.006,0.014,8,16.4,95.3,W,2
R5,2023,10,9,7,0,0.004,0.019,0.3,0.008,0.015,5,16.4,96,NNW,1.4
R5,2023,10,9,8,0,0.008,0.019,0.3,0.006,0.016,8,16.6,95.7,N,2
R5,2023,10,9,9,0,0.007,0.018,0.3,0.005,0.017,5,16.9,95.2,N,1
R5,2023,10,9,10,0.001,0.009,0.016,0.3,0.009,0.018,5,17.5,92,WNW,0.5
R5,2023,10,9,11,0,0.006,0.014,0.3,0.01,0.018,6,17.9,91,W,1.2
R5,2023,10,9,12,0.001,0.007,0.017,0.3,0.01,0.015,6,18.5,88.3,WNW,0.9
R5,2023,10,9,13,0,0.006,0.02,0.3,0.007,0.012,5,19.4,85.3,NW,1
R5,2023,10,9,14,0,0.007,0.022,0.2,0.008,0.014,5,20,81.9,NW,0.9
R5,2023,10,9,15,0.001,0.006,0.02,0.3,0.009,0.015,5,20.4,81.8,NW,0.7
R5,2023,10,9,16,0.001,0.007,0.019,0.3,0.005,0.016,6,20.3,83.3,NNW,1.2
R5,2023,10,9,17,0,0.009,0.019,0.3,0.003,0.016,6,19.7,88.5,WNW,0.9
R5,2023,10,9,18,0,0.009,0.017,0.3,0.003,0.017,5,19.1,95.5,WNW,0.5
R5,2023,10,9,19,0,0.006,0.019,0.3,0.002,0.013,4,18.9,95.9,WNW,0.6
R5,2023,10,9,20,0,0.006,0.019,0.3,0.002,0.012,6,18.7,97.5,WSW,0.6
R5,2023,10,9,21,0,0.008,0.019,0.3,0.001,0.013,5,18.8,99.1,NNE,0.4
R5,2023,10,9,22,0,0.009,0.012,0.3,0.002,0.017,6,18.9,98.9,W,0.7
R5,2023,10,9,23,0,0.008,0.017,0.3,0.001,0.013,6,18.8,99.1,NNW,0.5
R5,2023,10,9,24,0,0.005,0.018,0.2,0.001,0.011,2,18.8,99.1,WNW,0.4
R5,2023,10,10,1,***,0.007,0.013,***,***,***,5,18.8,99,N,1.4
R5,2023,10,10,2,0,0.007,0.008,0.3,0.003,0.018,8,18.9,98.6,NE,0.9
R5,2023,10,10,3,0,0.005,0.01,0.3,0.003,0.013,2,19.1,98.5,NNE,0.3
R5,2023,10,10,4,0,0.007,0.003,0.3,0.012,0.019,5,19.1,98.5,N,0.3
R5,2023,10,10,5,0.001,0.008,0.002,0.3,0.019,0.022,6,19,98.3,NW,0.4
R5,2023,10,10,6,0.001,0.009,0.001,0.3,0.03,0.025,6,19,98.2,W,0.9
R5,2023,10,10,7,0.001,0.008,0.002,0.3,0.044,0.021,6,19.4,95.9,N,0.4
R5,2023,10,10,8,0.002,0.009,0.005,0.3,0.049,0.021,7,20.6,84.1,W,1.8
R5,2023,10,10,9,0.001,0.007,0.012,0.3,0.034,0.018,7,22.5,74.8,W,2.8
R5,2023,10,10,10,0.001,0.008,0.02,0.3,0.031,0.017,5,25.5,58.6,W,2
R5,2023,10,10,11,0,0.005,0.032,0.2,0.016,0.016,4,24.2,57.4,W,4.6
R5,2023,10,10,12,0,0.007,0.036,0.2,0.01,0.013,8,24.9,55.2,W,4.8
R5,2023,10,10,13,0,0.003,0.039,0.2,0.005,0.008,2,22.5,58,W,5.5
R5,2023,10,10,14,0,0.007,0.04,0.2,0.011,0.011,7,24.2,51.2,W,4.1
R5,2023,10,10,15,0.001,0.008,0.044,0.2,0.008,0.009,4,24.5,49.9,W,4.8
R5,2023,10,10,16,0,0.006,0.046,0.2,0.005,0.007,5,23.4,51.3,W,6
R5,2023,10,10,17,0,0.009,0.043,0.2,0.004,0.007,7,21.9,61.3,W,4.7
R5,2023,10,10,18,0,0.007,0.04,0.2,0.003,0.01,6,21.3,64,W,4.3
R5,2023,10,10,19,0.001,0.005,0.04,0.2,0.006,0.007,4,20.7,65.2,W,4.3
R5,2023,10,10,20,0,0.005,0.041,0.2,0.005,0.008,4,20.4,64.3,W,2.7
R5,2023,10,10,21,0,0.005,0.038,0.2,0.015,0.008,5,19.8,65.9,W,3
R5,2023,10,10,22,0,0.005,0.041,0.2,0.003,0.003,2,19.7,64,W,2.5
R5,2023,10,10,23,0,0.005,0.039,0.2,0.001,0.005,2,19.4,65,W,1.5
R5,2023,10,10,24,0,0.008,0.033,0.2,0.001,0.008,7,18.6,68.8,W,1.5
R5,2023,10,11,1,0.001,0.008,0.032,0.2,0.004,0.007,7,18.8,70.1,W,2.8
R5,2023,10,11,2,0.001,0.008,0.03,0.2,0.005,0.008,3,18.6,70.6,W,2.6
R5,2023,10,11,3,0,0.008,0.028,0.2,0.001,0.009,5,18.3,70.4,WNW,1.5
R5,2023,10,11,4,0.001,0.005,0.028,0.2,0.003,0.01,4,18.3,65.7,NW,1.6
R5,2023,10,11,5,0.001,0.01,0.031,0.2,0.003,0.009,4,18.3,57.7,NNW,1.6
R5,2023,10,11,6,0,0.009,0.028,0.2,0.003,0.012,10,17.9,59.3,N,1.5
R5,2023,10,11,7,0.001,0.015,0.021,0.2,0.008,0.021,13,18.2,52.6,N,1.9
R5,2023,10,11,8,0.001,0.016,0.02,0.3,0.013,0.024,13,19.4,46.6,NNW,1.9
R5,2023,10,11,9,0.001,0.014,0.023,0.2,0.012,0.022,9,20.6,44.4,N,2.8
R5,2023,10,11,10,0.001,0.013,0.028,0.2,0.011,0.016,8,21,45.4,N,3.6
R5,2023,10,11,11,0,0.01,0.034,0.2,0.007,0.012,9,22.8,43.4,N,3.2
R5,2023,10,11,12,0.001,0.011,0.037,0.2,0.006,0.012,6,23.9,38.2,NNE,3.6
R5,2023,10,11,13,0,0.01,0.041,0.2,0.005,0.011,5,24.9,36.4,NW,1.3
R5,2023,10,11,14,0.001,0.012,0.042,0.2,0.012,0.016,7,25.4,36.3,W,1.8
R5,2023,10,11,15,0.001,0.009,0.039,0.2,0.012,0.02,9,25.7,36,WSW,2
R5,2023,10,11,16,0.001,0.013,0.035,0.4,0.014,0.025,8,25.7,35.7,WSW,2.2
R5,2023,10,11,17,0.001,0.015,0.024,0.4,0.018,0.033,14,24.3,44.4,SW,2.4
R5,2023,10,11,18,0.001,0.017,0.026,0.7,0.01,0.026,14,22.4,52.2,WSW,2.1
R5,2023,10,11,19,0.001,0.018,0.016,0.4,0.04,0.049,17,21.5,57.9,SW,0.9
R5,2023,10,11,20,0.002,0.018,0.011,0.4,0.04,0.036,17,20.3,65,W,0.4
R5,2023,10,11,21,0.001,0.026,0.021,0.3,0.013,0.022,15,20.4,62.2,N,1.1
R5,2023,10,11,22,0.001,0.02,0.026,0.3,0.004,0.014,17,19.5,64.8,NNW,1.1
R5,2023,10,11,23,0.001,0.018,0.024,0.2,0.002,0.014,14,19.2,67,NNW,0.4
R5,2023,10,11,24,0.001,0.016,0.018,0.3,0.004,0.021,11,18.8,60.8,N,2.2
R5,2023,10,12,1,0.001,0.01,0.025,0.2,0.001,0.012,10,18.8,62.2,N,1.8
R5,2023,10,12,2,0.001,0.011,0.023,0.2,0.001,0.012,9,18.2,64.4,NNW,1.2
R5,2023,10,12,3,0.001,0.017,0.019,0.2,0.002,0.015,13,17.9,66.5,N,1.2
R5,2023,10,12,4,0.001,0.015,0.012,0.3,0.005,0.021,11,17.4,70.1,N,0.5
R5,2023,10,12,5,0.001,0.014,0.011,0.2,0.007,0.022,11,17,70.4,NNW,1.1
R5,2023,10,12,6,0.001,0.016,0.011,0.2,0.006,0.021,11,16.7,71.4,NW,0.7
R5,2023,10,12,7,0.001,0.014,0.01,0.3,0.013,0.021,10,17.6,63.2,N,1.5
R5,2023,10,12,8,0.001,0.012,0.016,0.3,0.012,0.016,10,19.2,56.2,N,2.2
R5,2023,10,12,9,0.001,0.013,0.02,0.3,0.011,0.014,8,20.4,54.6,N,2.6
R5,2023,10,12,10,0.001,0.011,0.021,0.3,0.017,0.018,8,22.5,46.5,W,1.5
R5,2023,10,12,11,0.001,0.013,0.024,0.3,0.033,0.023,14,23.6,47.3,NNW,1.2
R5,2023,10,12,12,0.001,0.014,0.037,0.2,0.013,0.016,10,24.2,41.8,NNW,1.4
R5,2023,10,12,13,0.001,0.012,0.046,0.2,0.007,0.014,9,24.7,41.8,NNW,1.2
R5,2023,10,12,14,0.001,0.012,0.042,0.3,0.016,0.019,10,25.8,37.8,WSW,2.4
R5,2023,10,12,15,0.001,0.014,0.043,0.3,0.013,0.021,10,26.1,38.7,WSW,2.8
R5,2023,10,12,16,0.001,0.013,0.038,0.3,0.014,0.022,10,25.2,39.1,WSW,2.7
R5,2023,10,12,17,0.001,0.013,0.029,0.3,0.014,0.024,11,23.6,46.5,WSW,2.6
R5,2023,10,12,18,0,0.012,0.03,0.3,0.009,0.017,10,22.1,53,W,2.4
R5,2023,10,12,19,0,0.012,0.028,0.3,0.005,0.016,8,21,57.4,WSW,1.3
R5,2023,10,12,20,0,0.011,0.034,0.2,0.001,0.009,7,20.4,57.8,WNW,1
R5,2023,10,12,21,0.001,0.01,0.034,0.2,0.002,0.008,6,19.5,60.8,W,1.2
R5,2023,10,12,22,0.001,0.008,0.032,0.2,0.001,0.009,8,19,61.8,NNW,1.3
R5,2023,10,12,23,0.001,0.009,0.031,0.2,0.001,0.009,10,18.5,65.4,W,0.6
R5,2023,10,12,24,0.001,0.01,0.029,0.2,0.002,0.009,7,17.9,67.3,NW,0.8
R5,2023,10,13,1,0.001,0.015,0.023,0.3,0.001,0.014,13,17.6,69.6,NW,0.4
R5,2023,10,13,2,0,0.012,0.024,0.3,0.001,0.013,11,17.7,61.4,N,2.5
R5,2023,10,13,3,0,0.012,0.026,0.3,0.001,0.012,8,17.4,61.9,N,2.3
R5,2023,10,13,4,0.001,0.009,0.025,0.3,0.002,0.012,10,17.1,63.1,NNW,2.5
R5,2023,10,13,5,0.001,0.012,0.023,0.3,0.003,0.014,8,16.8,65.1,N,2.4
R5,2023,10,13,6,0.001,0.014,0.021,0.3,0.004,0.015,12,16.5,63.7,N,3.1
R5,2023,10,13,7,0,0.011,0.02,0.3,0.007,0.016,7,17.4,57.9,N,2
R5,2023,10,13,8,0,0.013,0.022,0.3,0.009,0.015,10,18.8,51.1,N,2
R5,2023,10,13,9,0.001,0.013,0.022,0.3,0.012,0.016,9,20.1,48.2,N,2
R5,2023,10,13,10,0,0.012,0.024,0.2,0.015,0.018,8,21.5,43.4,NW,1.4
R5,2023,10,13,11,0.001,0.011,0.029,0.2,0.023,0.018,7,23,39.8,WNW,1.9
R5,2023,10,13,12,0.001,0.011,0.033,0.2,0.021,0.018,8,24,35.1,WSW,1.6
R5,2023,10,13,13,0,0.009,0.044,0.2,0.008,0.015,5,24.2,33.1,W,1.4
R5,2023,10,13,14,0.001,0.01,0.049,0.2,0.011,0.016,6,25.3,32.5,W,0.9
R5,2023,10,13,15,0.001,0.01,0.038,0.3,0.02,0.025,7,25.4,33,SSW,2.2
R5,2023,10,13,16,0.002,0.013,0.035,0.3,0.018,0.031,9,24.8,38,SW,2.4
R5,2023,10,13,17,0.001,0.014,0.031,0.3,0.016,0.038,9,23.8,39.7,SW,1.8
R5,2023,10,13,18,0.001,0.013,0.034,0.4,0.007,0.035,13,22.8,45.9,SW,2.5
R5,2023,10,13,19,0.001,0.01,0.023,0.4,0.008,0.032,6,21.3,48.6,W,1.3
R5,2023,10,13,20,0.001,0.014,0.021,0.3,0.004,0.025,10,20.1,60.6,CALM,0.2
R5,2023,10,13,21,0.001,0.019,0.022,0.3,0.001,0.022,14,19.7,59.5,N,2
R5,2023,10,13,22,0,0.015,0.02,0.3,0.001,0.02,13,18.2,62.8,E,1.2
R5,2023,10,13,23,0.001,0.015,0.011,0.3,0.001,0.025,13,17.2,67.7,ENE,0.6
R5,2023,10,13,24,0,0.015,0.016,0.3,0.001,0.015,14,16.4,72.4,NE,0.5
R5,2023,10,14,1,0,0.016,0.017,0.3,0.001,0.011,12,15.7,76.6,NE,0.3
R5,2023,10,14,2,0,0.013,0.016,0.3,0.001,0.01,13,15.3,79.6,CALM,0.2
R5,2023,10,14,3,0,0.013,0.013,0.3,0.001,0.011,10,15.3,76.9,NNE,1.8
R5,2023,10,14,4,0.001,0.01,0.018,0.2,0,0.009,8,15.3,73.9,ENE,0.9
R5,2023,10,14,5,0,0.016,0.008,0.3,0.009,0.018,11,16.2,76,W,0.9
R5,2023,10,14,6,0.002,0.018,0.002,0.3,0.012,0.023,14,15.9,75.4,NNW,0.9
R5,2023,10,14,7,0.003,0.017,0.003,0.3,0.02,0.023,15,16.2,72.4,NNW,0.9
R5,2023,10,14,8,0.003,0.019,0.006,0.3,0.023,0.022,14,16.7,66.7,N,1.2
R5,2023,10,14,9,0.003,0.019,0.008,0.3,0.025,0.018,12,18.3,59.1,W,1
R5,2023,10,14,10,0.002,0.018,0.014,0.3,0.018,0.019,14,19.8,51.9,NW,0.9
R5,2023,10,14,11,0.003,0.024,0.014,0.4,0.025,0.029,17,20.7,52.5,WNW,0.9
R5,2023,10,14,12,0.002,0.019,0.023,0.3,0.012,0.023,13,21.4,50.1,NNE,1
R5,2023,10,14,13,0.002,0.018,0.038,0.3,0.004,0.015,13,23.1,48.4,E,1.7
R5,2023,10,14,14,0.002,0.021,0.05,0.4,0.002,0.013,16,22.8,51.9,SE,1.9
R5,2023,10,14,15,0.002,0.024,0.051,0.4,0.001,0.015,18,22.4,54.8,SE,1
R5,2023,10,14,16,0.003,0.02,0.05,0.4,0.001,0.014,17,22.2,56.4,SE,1.4
R5,2023,10,14,17,0.002,0.02,0.05,0.3,0.001,0.011,17,21.3,64.7,SE,2
R5,2023,10,14,18,0.002,0.019,0.044,0.3,0,0.013,15,20,77.8,SE,1.7
R5,2023,10,14,19,0.001,0.023,0.04,0.3,0.001,0.012,20,19.4,82.4,ESE,0.7
R5,2023,10,14,20,0.001,0.022,0.042,0.3,0,0.01,16,18.8,90.1,ESE,0.5
R5,2023,10,14,21,0.001,0.02,0.037,0.3,0,0.011,15,18.5,94.5,ESE,1
R5,2023,10,14,22,0.001,0.02,0.037,0.3,0.001,0.01,15,18.4,95.9,SE,1.4
R5,2023,10,14,23,0.001,0.019,0.033,0.3,0,0.011,15,18.2,95.5,SSE,0.8
R5,2023,10,14,24,0.001,0.014,0.036,0.2,0,0.007,13,17.9,96.3,N,0.8
R5,2023,10,15,1,0.001,0.011,0.038,0.2,0,0.005,12,17.7,96.1,NE,0.7
R5,2023,10,15,2,0.001,0.012,0.038,0.2,0,0.005,10,17.6,97.1,NE,2
R5,2023,10,15,3,0,0.013,0.043,0.2,0,0.003,10,17.2,97.8,NNE,1.5
R5,2023,10,15,4,0,0.01,0.041,0.2,0,0.002,9,17.1,97.9,NNE,1.4
R5,2023,10,15,5,0,0.01,0.04,0.2,0,0.004,8,16.9,97,N,1.9
R5,2023,10,15,6,0,0.008,0.038,0.2,0,0.006,8,16.9,97.1,NNE,2.1
R5,2023,10,15,7,0,0.009,0.034,0.2,0.001,0.009,7,17.3,94.6,N,1.2
R5,2023,10,15,8,0,0.008,0.032,0.2,0.001,0.01,7,17.3,93.6,W,2.1
R5,2023,10,15,9,0,0.009,0.035,0.2,0.001,0.006,7,17.7,93,NNW,1.5
R5,2023,10,15,10,0.001,0.005,0.034,0.2,0.002,0.007,7,19.4,79.5,NNW,1.9
R5,2023,10,15,11,0.001,0.004,0.04,0.3,0.002,0.005,2,22.2,64.9,WNW,1.6
R5,2023,10,15,12,0.001,0.009,0.046,0.2,0.002,0.006,5,23.7,55.5,W,2.6
R5,2023,10,15,13,0,0.007,0.052,0.2,0.001,0.004,3,24.2,47.4,W,3.4
R5,2023,10,15,14,0,0.008,0.055,0.2,0.001,0.004,8,24.1,46.2,W,4.5
R5,2023,10,15,15,0,0.007,0.058,0.2,0,0.003,8,21.9,53,W,4.3
R5,2023,10,15,16,0.001,0.009,0.06,0.2,0.001,0.004,5,22.4,52.4,W,3.3
R5,2023,10,15,17,0,0.009,0.061,0.2,0.001,0.003,7,21.6,51.5,W,4.8
R5,2023,10,15,18,0,0.01,0.061,0.2,0.001,0.003,8,20.5,58.5,W,4
R5,2023,10,15,19,0,0.009,0.06,0.2,0,0.004,10,20.1,61.5,W,2.8
R5,2023,10,15,20,0,0.008,0.06,0.2,0,0.004,9,19.7,66.8,NW,0.9
R5,2023,10,15,21,0,0.008,0.06,0.2,0,0.005,6,19.7,65.1,W,2.6
R5,2023,10,15,22,0,0.009,0.06,0.2,0.001,0.004,7,19.5,68.2,W,2.3
R5,2023,10,15,23,0,0.009,0.056,0.2,0.002,0.006,5,19.4,70.2,W,2.2
R5,2023,10,15,24,0,0.01,0.053,0.2,0,0.005,7,19.2,71.8,W,2.1
R5,2023,10,16,1,0,0.01,0.048,0.2,0.001,0.007,9,18.2,79,NNE,1.1
R5,2023,10,16,2,0.001,0.012,0.041,0.3,0.001,0.01,9,18.5,78.5,N,1.4
R5,2023,10,16,3,0,0.011,0.035,0.3,0.005,0.011,11,17.9,79.8,SW,0.8
R5,2023,10,16,4,0.001,0.013,0.031,0.3,0.002,0.016,10,17.7,81.2,NNW,1.1
R5,2023,10,16,5,0.001,0.016,0.018,0.3,0.005,0.025,13,16.2,85.4,NE,1
R5,2023,10,16,6,0,0.012,0.006,0.3,0.01,0.029,10,15.5,86.9,SSE,0.6
R5,2023,10,16,7,0.001,0.008,0.002,0.3,0.031,0.032,7,16.1,80.8,NE,0.8
R5,2023,10,16,8,0.001,0.012,0.005,0.4,0.027,0.031,10,17.6,75.1,NE,0.9
R5,2023,10,16,9,0.002,0.015,0.012,0.3,0.027,0.029,9,19.2,67.8,WNW,1
R5,2023,10,16,10,0.002,0.014,0.015,0.3,0.036,0.031,12,20,66.7,W,1.9
R5,2023,10,16,11,0.002,0.013,0.019,0.3,0.026,0.029,10,21.3,61.5,W,1
R5,2023,10,16,12,0.001,0.011,0.028,0.3,0.022,0.024,9,22.8,48.5,WNW,1.3
R5,2023,10,16,13,0.001,0.013,0.043,0.2,0.009,0.013,6,24.7,47.7,W,2.6
R5,2023,10,16,14,0,0.013,0.046,0.2,0.009,0.013,11,24.4,45.8,WNW,2
R5,2023,10,16,15,0.001,0.019,0.046,0.3,0.009,0.014,9,24.7,51,WNW,2.8
R5,2023,10,16,16,0.001,0.015,0.045,0.3,0.005,0.015,11,24.1,49.7,WNW,1.9
R5,2023,10,16,17,0,0.015,0.046,0.3,0.006,0.015,12,23.1,53.6,W,1.5
R5,2023,10,16,18,0.001,0.015,0.045,0.3,0.005,0.014,11,22.3,54.9,W,1.9
R5,2023,10,16,19,0.001,0.014,0.045,0.3,0.003,0.012,11,21.6,57.6,W,1.3
R5,2023,10,16,20,0.001,0.017,0.047,0.3,0.002,0.011,12,21,62.2,W,2.7
R5,2023,10,16,21,0,0.018,0.05,0.3,0.001,0.01,13,20.3,68,N,1.3
R5,2023,10,16,22,0.001,0.024,0.04,0.3,0.001,0.016,17,19.5,73,N,0.3
R5,2023,10,16,23,0.001,0.025,0.034,0.3,0.001,0.02,17,19.5,72.6,WNW,0.3
R5,2023,10,16,24,0.001,0.019,0.034,0.3,0.001,0.019,13,19.2,74.9,CALM,0.1
R5,2023,10,17,1,***,0.021,0.026,***,***,***,19,18.3,79.2,CALM,0.1
R5,2023,10,17,2,0.001,0.021,0.024,0.4,0.002,0.021,15,19.2,72.7,N,0.7
R5,2023,10,17,3,0.001,0.023,0.021,0.4,0.001,0.022,16,18.3,77.8,N,1.3
R5,2023,10,17,4,0.001,0.019,0.026,0.3,0.002,0.017,13,18.2,81.1,N,1
R5,2023,10,17,5,0.001,0.019,0.022,0.3,0.003,0.019,16,17.4,81.6,N,1.5
R5,2023,10,17,6,0.001,0.017,0.01,0.3,0.008,0.027,12,17.2,81.1,N,1
R5,2023,10,17,7,0.001,0.022,0.006,0.4,0.026,0.033,18,18.2,66.9,WNW,0.9
R5,2023,10,17,8,0.002,0.016,0.013,0.4,0.028,0.028,12,19.5,61.4,NNW,1.6
R5,2023,10,17,9,0.001,0.017,0.022,0.3,0.014,0.018,14,21,53,WNW,1.4
R5,2023,10,17,10,0.001,0.014,0.026,0.3,0.018,0.019,10,22.8,45.7,NW,1.6
R5,2023,10,17,11,0.001,0.014,0.038,0.3,0.012,0.014,9,23.6,42.9,N,2.8
R5,2023,10,17,12,0.001,0.013,0.042,0.2,0.011,0.01,8,23.9,42.6,WNW,3.1
R5,2023,10,17,13,0.001,0.011,0.047,0.2,0.006,0.008,8,24.8,42.9,W,3.2
R5,2023,10,17,14,0,0.011,0.042,0.3,0.014,0.014,9,25.4,39.6,W,3.3
R5,2023,10,17,15,0.001,0.014,0.041,0.3,0.014,0.012,9,25.1,40.9,W,4